Preview of NWS' New Version of Forecast
This preview is not operational and should not be used for support decisions.
Latest weather observations around

Whidbey Island, Naval Air Station (KNUW)

Using English Units (Switch to International System of Units)
Date/ Time (PDT) Wind (mph) Vis. (mi) Weather Sky Cond. Temp (°F) Rel. Humidity Wind Chill (°F) Heat Index (°F) Pressure Precip. (in)
Air Dwpt 6 hour Altimeter (inHg) Sea level (inHg) 1 hr 3 hr 6 hr
Max Min
May 21 12:56 W 8 10 Cloudy FEW020 OVC045 59 50     72%     30.12 30.11      
May 21 11:56 W 7 10 Mostly Cloudy FEW015 FEW025 BKN050 58 50     75%     30.13 30.12      
May 21 10:56 WSW 8 10 Mostly Cloudy FEW015 SCT050 BKN250 58 50     75%     30.13 30.13      
May 21 09:56 WSW 5 10 Mostly Cloudy FEW012 BKN050 BKN250 57 49     74%     30.13 30.12      
May 21 08:56 SW 8 10 Mostly Cloudy FEW009 BKN045 BKN250 55 48     77%     30.12 30.12      
Notice The following observation data may not be complete
May 21 07:56   10 Mostly Cloudy FEW008 SCT045 BKN250          %              
May 21 05:56 WSW 8 10 Mostly Cloudy FEW006 FEW025 SCT050 BKN250 51 47     86%     30.1 30.09      
May 21 04:56 WSW 9 10 Partly Cloudy FEW005 FEW025 SCT050 SCT250 51 47     86%     30.1 30.1      
May 21 03:56 WSW 5 10 Mostly Clear FEW025 FEW050 52 47     83%     30.1 30.1      
May 21 02:56 WSW 7 10 Mostly Clear FEW020 FEW050 52 46     80%     30.1 30.09      
May 21 01:56 SW 10 10 Mostly Clear FEW030 FEW050 53 46     77%     30.1 30.1      
May 21 00:56 SW 11 10 Mostly Clear FEW030 FEW050 53 46     77%     30.1 30.1      
May 20 23:56 SW 9 10 Mostly Clear FEW035 FEW060 53 46     77%     30.1 30.1      
May 20 22:56 SSW 10 10 Mostly Clear FEW035 FEW070 53 46     77%     30.1 30.1      
May 20 21:56 SSW 8 10 Partly Cloudy FEW030 FEW070 SCT250 54 46     74%     30.1 30.1      
May 20 20:56 SW 10 10 Partly Cloudy FEW030 FEW048 SCT070 SCT250 55 46     72%     30.08 30.08      
May 20 19:56 SW 10 10 Partly Cloudy FEW032 SCT070 SCT180 57 47     69%     30.09        
May 20 18:56 SW 8 10 Mostly Cloudy SCT030 SCT070 BKN180 58 48     70%     30.09        
May 20 17:56 WSW 11 10 Mostly Cloudy SCT029 SCT038 BKN075 BKN180 60 49     67%     30.1        
May 20 16:56 WSW 11 10 Mostly Cloudy FEW025 BKN031 BKN080 BKN190 60 49     67%     30.09 30.09      
May 20 15:56 W 10 10 Mostly Cloudy FEW027 BKN035 BKN075 BKN220 61 49     64%     30.1 30.1      
May 20 15:44 WSW 10 10 Mostly Cloudy SCT029 BKN037 BKN190 BKN250 61 49     64%     30.1        
May 20 15:05   10 Mostly Cloudy BKN028 BKN037 BKN160 61 49     64%     30.11        
May 20 14:56 WSW 11 10 Mostly Cloudy SCT027 BKN036 BKN075 BKN160 61 49     64%     30.11 30.1      
May 20 14:11 WSW 10 10 Mostly Cloudy BKN030 BKN038 BKN160 61 49     64%     30.11        
May 20 13:56 SW 10 10 Mostly Cloudy BKN029 BKN038 BKN160 61 49     64%     30.11 30.1      
May 20 12:56 SW 10 10 Cloudy OVC028 59 48     67%     30.11 30.1      
May 20 11:56 SW 13 10 Cloudy OVC027 58 49     72%     30.1 30.1      
May 20 10:56 WSW 11 10 Cloudy OVC025 57 48     72%     30.09 30.09      
May 20 09:56 SW 9 10 Cloudy OVC026 56 48     75%     30.09 30.08      
May 20 08:56 SW 11 10 Cloudy OVC024 55 48     77%     30.07 30.07      
May 20 07:56 SW 8 10 Cloudy OVC024 55 49     80%     30.06 30.05      
May 20 06:56 SW 11 10 Cloudy OVC021 55 49     80%     30.05 30.04      
May 20 05:56 SW 11 10 Cloudy OVC023 55 48     77%     30.03 30.03      
May 20 04:56 SW 10 10 Cloudy OVC020 55 49     80%     30.02 30.02      
May 20 03:56 SW 13 10 Cloudy OVC022 55 49     80%     30.01 30.01      
May 20 02:56 SW 11 10 Cloudy OVC021 55 49     80%     30.01 30.01      
May 20 01:56 SW 13 10 Cloudy OVC024 55 49     80%     30.01 30      
May 20 00:56 SSW 6 10 Cloudy OVC024 56 49     77%     30.01 30      
May 19 23:56 SSW 6 10 Mostly Cloudy BKN032 BKN080 BKN250 55 49     80%     30.01 30      
May 19 22:56 3 10 Mostly Cloudy FEW030 BKN080 BKN120 BKN250 54 49     83%     30 30      
May 19 21:56 WSW 13 10 Mostly Cloudy BKN080 BKN130 BKN250 55 49     80%     30 29.99      
May 19 20:56 WSW 14 10 Mostly Cloudy FEW020 SCT060 SCT095 BKN130 BKN250 56 50     80%     29.98 29.98      
May 19 19:56 WSW 8 10 Mostly Cloudy SCT050 BKN100 BKN130 BKN200 57 50     77%     29.98 29.98      
May 19 18:56 WSW 10 10 Partly Cloudy FEW045 FEW080 SCT110 SCT160 59 51     75%     29.98 29.98      
May 19 17:56 WSW 8 10 Mostly Cloudy FEW034 SCT075 BKN110 BKN170 58 51     78%     30        
May 19 16:56 W 8 10 Mostly Cloudy FEW030 SCT070 BKN120 BKN190 58 51     78%     30 29.99      
May 19 15:56 WNW 6 10 Partly Cloudy FEW030 FEW065 SCT110 SCT140 61 52     72%     30 30      
May 19 14:56 WNW 7 10 Partly Cloudy FEW030 FEW080 SCT140 SCT180 61 52     72%     30.02 30.01      
May 19 13:56 WNW 7 10 Mostly Cloudy FEW025 SCT075 SCT090 BKN140 BKN180 61 53     75%     30.03 30.03      
May 19 12:56 WNW 7 10 Mostly Cloudy FEW024 SCT070 BKN110 BKN140 58 52     81%     30.05 30.04      
May 19 11:56 W 7 10 Mostly Cloudy FEW016 SCT080 BKN100 BKN140 61 53     75%     30.06 30.06      
May 19 11:32 W 5 10 Mostly Cloudy SCT016 BKN100 BKN120 BKN140 59 52     78%     30.07        
May 19 10:56 W 5 10 Mostly Cloudy BKN017 BKN095 BKN120 57 51     81%     30.07 30.06      
May 19 09:56 WSW 6 10 Cloudy BKN019 BKN075 BKN110 OVC140 57 51     81%     30.07 30.07      
May 19 08:56 SW 6 10 Cloudy FEW009 BKN019 BKN110 OVC140 56 50     80%     30.07 30.07      
May 19 07:56 Calm 10 Mostly Cloudy FEW008 SCT020 BKN095 BKN140 56 50     80%     30.07 30.06      
May 19 07:27 SW 3 10 Cloudy FEW008 BKN075 OVC090 55 50     83%     30.07        
May 19 06:56 SSW 5 10 Cloudy FEW070 BKN080 OVC090 55 49     80%     30.06 30.06      
May 19 06:27 Calm 10 Cloudy SCT023 OVC085 54 49     83%     30.06        
May 19 05:56 Calm 10 Cloudy BKN028 OVC075 54 49     83%     30.06 30.05      
May 19 04:56 Calm 10 Mostly Cloudy BKN022 54 50     86%     30.06 30.05     0
May 19 03:56 SSW 3 10 Cloudy OVC022 54 50     86%     30.06 30.06 0    
May 19 02:56 WSW 3 10 Mostly Cloudy FEW025 SCT050 BKN090 54 49     83%     30.06 30.06 0    
May 19 01:56 SW 5 8 Light Rain BKN026 BKN040 OVC060 54 50     86%     30.07 30.07 0 0  
May 19 00:56 SW 5 10 Cloudy BKN028 BKN080 OVC110 54 50     86%     30.08 30.08      
May 18 23:56 Calm 10 Cloudy OVC080 55 49     80%     30.09        
May 18 22:56 WSW 6 10 Mostly Cloudy SCT040 BKN100 BKN120 BKN200 54 49     83%     30.08 30.08     0
May 18 21:56 WSW 6 10 Mostly Cloudy BKN090 BKN120 BKN180 54 50     86%     30.09 30.08      
May 18 20:56 W 3 10 Mostly Cloudy FEW028 FEW040 BKN100 BKN250 55 50     83%     30.08 30.07 0    
May 18 19:56 W 5 10 Light Rain SCT043 SCT090 BKN110 BKN250 56 50     80%     30.07 30.07 0 0  
May 18 18:56 Calm 10 Mostly Cloudy SCT045 SCT090 BKN110 BKN160 BKN250 57 51     81%     30.07 30.07      
May 18 17:56 WNW 5 10 Mostly Cloudy SCT040 BKN095 BKN120 BKN160 58 50     75%     30.08 30.07      
May 18 16:56 NW 5 10 Mostly Cloudy FEW024 SCT040 BKN110 BKN150 BKN250 59 51     75%     30.08 30.08      
May 18 15:56 WNW 5 10 Mostly Cloudy FEW022 SCT045 BKN095 BKN130 BKN250 57 51     81%     30.09 30.09      
May 18 14:56 WNW 6 10 Mostly Cloudy FEW020 SCT035 BKN100 BKN140 BKN250 58 51     78%     30.1 30.1      
May 18 13:56 WNW 6 10 Mostly Cloudy SCT016 SCT040 BKN110 BKN150 BKN250 59 51     75%     30.1 30.1      
May 15 05:56 SW 10 1 Fog/Mist SKC BKN005 OVC120 53 50     89%     29.95        
May 15 03:40 SW 6 1.5 Fog/Mist SCT004 SCT120 53 50     89%     29.93        
May 14 10:56 W 7 10 Partly Cloudy SCT250 64 53     67%     30 30      
May 13 15:56 W 5 10 Partly Cloudy SCT250 70 54     57%       29.96      
May 13 10:56 W 9 10 Mostly Clear FEW250 65 53     65%     30.02 30.01      
May 13 09:56 WNW 5 10 Clear CLR 63 53     70%     30.02 30.02      
May 12 16:56 WSW 7 10 Mostly Clear FEW250 64 51     63%       30.06      
May 11 19:56 W 3 10 Mostly Clear FEW035 56 50     80%     30.23 30.23      
May 11 06:56   10 Mostly Cloudy BKN026 BKN200 53 47     80%     30.28 30.28 0    
Jun 12 05:56 SW 10 8 Cloudy BKN009 OVC055 55 50     83%     30.03        
Jun 11 19:56 WSW 7 10 Partly Cloudy FEW055 FEW120 SCT170 SCT250 59 47     64%     30.03 30.03      
Jun 11 18:56 W 9 10 Partly Cloudy FEW050 FEW110 SCT210 SCT250 59 48     67%     30.02 30.02      
Jun 10 18:56 WSW 3 10 Mostly Cloudy FEW050 SCT080 SCT120 BKN240 57 47     69%     29.92        
Jun 10 16:56 WSW 11 10 Mostly Cloudy FEW030 SCT045 SCT070 SCT210 BKN250 58 47     67%     29.91        
Jun 10 14:56 W 9 10 Mostly Cloudy FEW026 SCT042 SCT110 BKN220 BKN250 59 47     64%     29.91 29.91      
Jun 09 23:56 SE 7 10 Mostly Cloudy FEW032 BKN070 BKN090 54 45     72%     29.88 29.88      
Jun 08 18:56 ESE 5 10 Light Rain SCT032 BKN045 BKN060 OVC140 56 49     77%       29.94 0    
Jun 07 21:56 3 10 Cloudy FEW050 SCT090 BKN110 OVC220 60 42     51%              
Jun 07 11:56 WNW 7 10 Mostly Cloudy FEW050 SCT120 BKN190 63 47     56%     29.79 29.79      
Jun 07 05:56 Calm 10 Cloudy FEW120 SCT160 OVC250 52 43     71%     29.9